Temp
11 11 10 10 10 11 10 10 9 11 10 11 8 7 8 8 9 9 9 9 9 9 9 8 7 7 6 5 4 4 3 4 4 4 6 8 8 8 8 8 8 8 8 7
8 10 9 8 9 10 9 9 9 9 9 7 7 8 8 8 8 8 8 8 8 8 8 7 7 6 6 5 4 3 3 3 3 5 6 6 7 7 7 6 6 7 6 6
8 7 7 9 9 8 8 7 7 8 7 7 7 7 7 7 8 8 7 7 7 7 7 7 6 6 6 4 4 3 2 2 3 4 4 5 5 5 4 4 4 4 4 4
7 7 8 7 7 7 8 6 5 6 6 6 6 6 7 8 7 7 7 6 6 6 6 6 5 5 5 4 4 2 2 2 3 3 3 3 3 3 3 3 3 3 2 2
6 7 9 6 6 6 6 6 5 5 6 5 5 5 8 8 7 6 5 5 4 4 4 5 5 5 5 4 4 3 2 2 2 3 3 2 2 2 2 2 1 2 2 2
5 6 9 6 6 5 6 6 4 4 4 4 4 4 7 6 5 4 3 3 3 3 3 4 4 4 4 4 4 3 2 1 2 2 2 2 2 2 1 1 1 1 1 1
6 7 8 5 5 5 6 5 4 3 3 3 3 4 4 3 3 2 2 2 1 2 3 3 3 3 3 4 4 3 2 1 1 2 2 2 2 2 1 1 1 1 0 -0
5 5 6 4 5 5 3 4 3 3 2 2 2 2 2 2 2 1 1 0 1 1 1 1 2 3 3 3 3 2 1 1 0 1 1 2 2 1 1 1 -0 -1 -1 -1
6 7 4 3 3 3 2 2 2 1 1 1 0 0 0 0 0 -0 -1 -0 -0 -0 -0 0 1 2 2 3 3 1 1 0 0 0 1 2 1 1 0 -0 -1 -1 -1 -1
5 3 3 3 2 2 1 0 0 0 -1 -1 -1 -1 -1 -1 -1 -1 -1 -2 -2 -1 -1 -0 0 1 1 2 2 1 1 0 -0 -0 0 1 1 0 0 -0 -1 -1 -1 -1
4 3 3 2 2 1 -0 -1 -1 -2 -2 -2 -2 -2 -2 -2 -2 -2 -2 -2 -2 -2 -2 -1 -1 -0 0 1 2 1 0 -0 -0 -0 -0 -0 -0 -0 -0 -0 -0 -1 -1 -1
4 0 0 1 1 -0 -1 -2 -2 -3 -3 -3 -3 -3 -3 -3 -3 -3 -3 -3 -2 -2 -2 -2 -1 -1 -0 0 1 1 0 -0 -1 -1 -1 -1 -0 -1 -0 -0 -0 -0 -1 -1
0 -1 -2 -1 -1 -2 -3 -3 -4 -4 -4 -4 -4 -4 -4 -4 -4 -4 -3 -3 -3 -3 -2 -2 -2 -1 -1 -1 0 1 0 -0 -1 -1 -1 -1 -1 -1 -1 -1 -1 -0 -1 -1
-2 -3 -1 -2 -2 -3 -4 -4 -5 -5 -4 -4 -5 -5 -5 -5 -4 -4 -4 -4 -4 -3 -3 -2 -2 -2 -1 -1 0 1 0 -0 -1 -1 -1 -1 -1 -1 -1 -1 -1 -1 -1 -1
-3 -4 -4 -4 -4 -4 -4 -5 -5 -4 -4 -5 -5 -5 -5 -5 -5 -5 -5 -4 -4 -4 -3 -3 -2 -2 -1 -1 -0 0 0 -0 -1 -1 -1 -1 -1 -1 -1 -1 -1 -1 -1 -1
-4 -4 -4 -4 -4 -4 -5 -5 -5 -5 -5 -5 -5 -6 -6 -6 -5 -5 -4 -3 -3 -3 -3 -2 -2 -2 -2 -2 -1 0 0 -0 -1 -1 -1 -1 -1 -1 -1 -1 -1 -1 -1 -1
-6 -5 -5 -5 -5 -5 -5 -6 -6 -6 -6 -6 -6 -7 -6 -6 -5 -4 -4 -4 -3 -3 -3 -3 -2 -2 -2 -2 -1 -0 -0 -1 -1 -1 -1 -2 -2 -1 -1 -1 -1 -1 -1 -1
-7 -6 -6 -7 -7 -6 -6 -6 -7 -7 -7 -7 -7 -7 -7 -7 -6 -6 -6 -5 -3 -3 -3 -3 -3 -3 -2 -2 -1 -0 -0 -1 -1 -1 -1 -2 -2 -2 -2 -2 -1 -1 -2 -1
-7 -7 -7 -7 -7 -8 -7 -7 -8 -8 -8 -8 -8 -8 -8 -7 -7 -7 -7 -6 -4 -4 -4 -3 -3 -3 -2 -0 -1 -1 -1 -1 -1 -2 -2 -2 -2 -2 -2 -2 -2 -2 -2 -2
-8 -8 -8 -8 -8 -8 -8 -8 -9 -8 -8 -9 -9 -8 -8 -8 -8 -8 -7 -7 -6 -6 -4 -3 -3 -2 -1 -1 -1 -1 -1 -1 -1 -2 -2 -2 -2 -2 -2 -2 -2 -2 -2 -2
-9 -10 -11 -10 -9 -9 -9 -9 -9 -9 -9 -9 -9 -9 -9 -9 -9 -9 -7 -7 -7 -7 -5 -3 -2 -2 -1 -1 -1 -1 -1 -1 -2 -2 -2 -2 -2 -2 -2 -2 -2 -2 -2 -2
-11 -11 -11 -11 -11 -10 -10 -10 -10 -9 -9 -9 -10 -10 -9 -9 -9 -9 -9 -9 -8 -7 -6 -5 -3 -2 -1 -1 -1 -1 -2 -2 -2 -2 -2 -2 -2 -3 -3 -2 -2 -2 -1 -2
-11 -11 -11 -11 -11 -11 -10 -10 -10 -10 -10 -10 -10 -11 -11 -10 -10 -10 -10 -10 -9 -9 -7 -7 -5 -4 -3 -2 -2 -2 -2 -2 -2 -2 -2 -2 -3 -3 -2 -3 -2 -1 -2 -2
-10 -10 -10 -10 -10 -10 -11 -10 -10 -10 -10 -10 -11 -11 -11 -11 -10 -11 -11 -11 -9 -10 -9 -8 -8 -6 -4 -4 -4 -3 -3 -2 -2 -3 -3 -3 -3 -3 -2 -2 -2 -2 -3 -3
-10 -10 -10 -10 -10 -10 -11 -11 -10 -10 -10 -10 -11 -11 -11 -11 -11 -11 -11 -11 -11 -11 -11 -10 -10 -9 -8 -7 -6 -5 -5 -4 -3 -3 -3 -3 -3 -3 -3 -3 -3 -3 -3 -3
-10 -10 -10 -10 -11 -11 -11 -10 -10 -10 -10 -10 -11 -11 -11 -11 -11 -11 -11 -11 -11 -11 -11 -11 -11 -10 -10 -10 -8 -8 -8 -6 -5 -5 -5 -4 -4 -4 -4 -4 -4 -4 -4 -4
-10 -9 -10 -10 -10 -11 -11 -11 -11 -11 -11 -11 -11 -12 -12 -11 -12 -11 -11 -11 -11 -11 -10 -10 -10 -11 -10 -9 -9 -9 -9 -9 -7 -6 -5 -5 -5 -5 -5 -4 -4 -4 -5 -5
Height
842 842 842 841 838 835 841 837 840 821 827 827 841 844 841 838 834 830 826 822 818 814 811 808 803 799 793 788 781 776 768 761 754 748 744 743 741 741 741 742 742 744 745 747
857 845 844 846 837 836 838 836 834 832 831 844 844 843 839 835 833 829 826 822 818 813 809 805 801 795 790 786 780 773 766 759 752 745 743 741 739 739 738 739 739 739 742 744
849 857 852 834 834 836 836 842 841 836 839 844 840 840 838 835 831 827 825 822 817 813 808 804 799 793 788 782 777 771 765 758 751 746 743 740 739 738 738 738 738 739 741 743
859 853 839 842 843 841 836 845 850 849 848 847 845 842 837 832 828 827 825 820 816 811 806 801 796 790 785 780 775 769 763 757 751 746 744 741 740 739 739 739 739 740 742 745
860 852 828 844 845 846 845 846 851 850 849 848 846 841 829 828 829 829 827 821 816 810 805 798 793 787 782 777 772 767 761 755 750 746 744 742 741 740 740 740 742 742 744 747
865 854 825 840 846 848 847 837 855 855 853 851 847 836 823 828 830 828 824 819 813 806 801 794 789 785 780 774 769 764 759 754 749 745 744 743 742 742 742 743 745 746 748 751
858 848 835 852 853 850 842 849 857 856 853 851 848 842 832 832 827 825 820 813 809 803 797 791 787 782 776 770 766 761 756 752 748 745 743 743 744 744 744 746 748 750 753 757
859 854 846 856 852 849 859 855 857 853 851 849 845 840 834 828 824 820 813 808 805 799 792 788 783 778 772 767 763 758 754 750 747 744 743 743 745 745 747 748 751 753 757 762
848 840 855 858 857 862 862 861 858 855 851 849 843 837 831 825 821 816 811 804 800 795 788 783 779 775 769 764 760 756 752 748 746 744 744 744 745 746 749 751 754 757 761 765
851 857 858 857 860 862 863 862 859 856 853 848 841 836 828 823 817 811 806 800 795 790 783 776 774 770 766 762 757 753 750 747 746 745 744 745 746 747 749 752 755 759 763 767
854 855 854 858 859 862 860 859 857 855 851 845 839 831 825 818 813 807 801 796 791 785 779 773 769 765 762 758 754 750 747 745 745 745 745 745 746 747 750 753 755 758 763 767
849 864 864 860 862 863 860 858 855 850 844 840 835 828 821 815 809 802 795 790 784 778 773 768 764 760 757 755 751 748 745 743 743 744 744 745 746 749 752 755 758 762 766 769
866 868 868 864 863 862 860 857 852 847 842 834 829 824 818 810 804 797 790 784 778 772 767 763 759 755 753 750 747 744 742 741 742 743 744 745 747 749 753 759 762 765 769 773
870 868 862 863 863 863 860 854 850 844 838 832 826 819 814 806 797 791 783 776 770 766 761 757 753 749 748 745 742 740 739 739 740 741 743 745 747 749 753 756 761 768 773 777
869 869 867 866 864 860 856 852 845 839 833 827 822 816 809 801 793 783 775 768 763 759 755 752 748 744 743 741 738 737 736 737 738 740 743 745 747 750 754 758 761 767 774 782
868 867 868 867 863 859 854 849 843 837 832 826 819 812 805 797 788 778 769 761 756 752 749 746 743 740 739 737 735 734 734 735 737 740 743 745 748 752 756 759 763 769 775 781
870 867 867 865 862 856 852 847 841 836 830 825 818 810 801 793 784 775 766 758 752 749 745 743 739 736 734 732 731 731 732 733 736 739 742 745 748 752 756 760 764 771 778 783
871 870 868 865 860 855 849 845 840 835 830 824 816 808 800 793 784 776 766 758 752 746 743 740 736 733 730 729 728 729 730 732 735 738 742 745 749 753 757 761 767 773 779 786
870 868 865 863 859 855 851 845 841 836 830 823 815 807 801 793 785 777 768 760 754 748 742 737 732 728 725 724 725 727 728 730 734 738 742 746 750 754 758 763 770 775 780 786
869 866 864 861 857 853 848 844 840 835 829 822 814 806 799 791 785 778 771 765 760 754 744 736 731 727 724 724 725 727 728 730 733 737 742 746 750 755 760 765 770 776 781 786
867 864 861 858 855 851 847 843 839 834 828 822 815 808 801 794 787 780 773 766 760 753 745 737 733 729 726 726 727 728 729 731 733 737 741 746 750 755 761 766 771 777 781 786
865 863 860 858 854 850 846 843 840 835 829 823 816 809 802 795 788 783 779 775 765 758 750 744 738 733 731 730 730 730 731 732 734 738 741 746 751 756 761 767 772 777 782 786
863 862 860 857 853 850 846 843 839 835 830 824 818 812 806 800 794 786 778 774 769 763 756 750 744 738 735 733 732 732 733 734 736 739 742 746 752 757 763 768 773 778 783 787
863 862 860 856 852 849 846 843 839 835 830 825 821 815 809 802 798 793 788 781 775 767 762 757 749 743 739 737 736 736 737 737 738 741 744 748 753 760 765 769 774 780 784 788
862 861 859 855 852 851 848 844 840 835 831 827 822 817 813 809 805 799 791 785 779 772 766 762 756 750 747 745 743 742 742 742 743 745 748 752 757 762 767 771 776 781 785 789
862 861 859 856 855 852 850 846 843 838 834 830 826 822 817 812 808 802 797 792 786 780 774 770 767 761 758 755 753 752 751 749 750 751 753 757 761 766 771 775 780 783 787 790
862 861 858 856 855 853 850 848 844 841 838 834 831 826 822 818 813 809 804 799 794 790 785 781 777 774 770 767 764 763 760 759 761 761 763 766 769 773 777 781 784 787 790 793
Wind_Speed
16 16 14 15 16 14 15 15 11 9 11 12 7 9 10 10 12 13 13 14 15 15 19 24 25 26 27 26 25 26 26 25 25 25 18 14 11 11 11 13 16 19 21 22
7 14 13 14 16 15 16 16 18 18 17 4 5 8 10 11 12 11 12 16 18 19 24 25 26 26 27 26 25 26 26 25 26 21 12 10 8 8 8 12 15 18 20 20
5 4 10 11 5 6 3 2 3 6 3 6 9 11 13 15 17 13 14 19 19 19 25 26 26 28 26 26 25 24 24 24 24 19 10 6 5 4 6 7 9 12 14 15
5 7 4 3 4 2 2 2 2 1 6 9 10 13 19 17 10 12 18 19 19 25 28 30 27 26 25 25 23 22 22 23 23 17 9 3 2 3 5 6 8 10 11 13
3 3 7 3 2 2 2 2 1 5 8 11 14 16 15 5 13 16 19 24 26 28 32 30 27 26 25 25 22 20 19 22 23 16 8 4 4 6 8 10 11 14 16 21
3 4 4 3 1 4 3 6 4 7 10 14 16 12 13 17 22 23 26 26 29 32 30 27 26 25 25 24 22 19 21 22 20 15 8 5 6 10 13 15 18 22 23 26
8 5 4 3 7 0 4 4 7 9 12 15 14 14 22 22 26 30 29 30 28 26 27 27 27 25 24 23 21 19 21 19 16 11 8 9 12 16 20 21 24 26 25 23
4 5 6 5 1 4 5 8 12 13 14 16 17 20 21 23 22 28 30 30 26 26 28 29 26 23 23 23 22 20 18 15 12 7 9 14 18 19 20 25 25 26 28 25
5 1 4 4 2 5 8 11 11 15 16 17 21 22 22 21 22 27 29 30 28 27 29 28 24 22 23 24 23 17 16 13 9 5 10 16 20 22 21 22 21 20 21 21
3 2 4 7 7 6 10 10 13 14 17 19 20 20 22 21 22 27 28 28 28 27 27 28 25 23 21 22 22 15 14 10 6 6 11 16 19 21 22 21 19 19 20 21
4 1 3 5 0 13 15 13 15 20 19 19 19 20 21 20 25 28 29 28 27 27 27 27 26 25 22 21 20 14 13 9 6 7 11 14 16 18 21 21 23 24 22 25
2 2 3 8 10 14 12 17 17 18 20 23 23 19 27 24 29 29 29 29 28 28 27 27 25 24 22 20 18 15 13 9 8 9 12 15 18 15 16 19 21 24 28 27
2 5 8 13 11 9 15 16 23 24 24 19 25 25 28 27 30 31 31 30 29 28 27 26 25 24 21 20 18 15 14 11 9 11 14 17 19 19 18 16 18 25 24 24
2 7 2 3 8 19 18 21 22 24 23 23 24 26 28 28 31 30 29 30 29 27 26 24 23 24 20 18 17 13 14 11 11 13 16 18 21 20 22 23 23 21 22 24
2 5 9 14 16 17 18 19 18 16 23 25 26 26 27 28 28 30 32 30 26 23 23 22 21 22 16 15 15 11 14 12 13 14 17 20 23 24 22 21 24 24 25 22
7 7 7 10 12 14 16 16 15 17 23 26 26 28 29 29 28 30 28 25 19 17 18 18 20 19 16 15 14 11 14 13 14 16 18 21 22 20 21 21 24 24 24 24
4 5 10 11 12 15 15 17 19 21 26 26 28 29 28 27 26 27 26 26 16 15 17 18 20 18 16 13 11 11 15 14 16 19 20 21 21 21 21 22 24 23 22 24
5 9 10 12 12 13 17 21 21 23 24 27 27 26 25 24 23 26 27 28 18 15 12 14 16 16 16 15 10 13 15 18 19 20 21 22 21 23 23 23 23 22 22 23
6 9 10 12 13 14 16 18 20 22 24 25 25 24 23 21 23 25 26 23 22 22 27 24 21 17 12 10 8 14 14 19 20 21 22 21 23 23 24 23 22 22 23 22
8 9 10 12 12 13 15 16 19 21 22 23 24 23 24 24 24 25 22 20 21 25 32 24 20 12 8 2 8 12 13 19 21 20 22 21 22 22 23 25 25 23 23 23
8 10 12 13 14 13 13 15 18 20 22 21 21 22 23 21 21 22 20 20 30 33 30 28 19 13 7 2 6 6 11 18 20 20 21 20 22 23 22 22 22 21 22 22
8 11 13 15 12 14 15 16 16 17 18 19 21 23 23 23 23 22 15 21 27 28 27 27 24 15 7 1 0 2 9 14 18 20 21 22 23 21 21 22 23 23 22 20
9 10 11 14 14 15 15 17 18 17 18 18 20 22 22 20 19 22 19 30 28 24 26 25 23 14 10 8 4 3 6 11 15 19 21 23 24 22 23 22 23 24 20 19
8 10 10 12 12 15 15 19 18 17 18 17 19 21 21 23 19 24 22 22 26 21 24 28 25 19 18 18 17 12 8 11 14 17 21 23 24 23 24 24 22 20 19 18
6 8 9 12 12 12 14 16 14 16 18 17 19 22 21 21 16 23 26 27 26 28 30 30 28 26 26 24 23 22 22 18 17 19 21 23 24 23 22 21 20 20 19 18
7 6 7 8 9 11 11 12 12 13 16 16 16 20 22 23 24 26 28 26 30 32 34 33 32 31 30 28 28 26 23 23 23 23 25 25 25 24 23 22 21 19 18 17
5 7 8 8 9 11 11 11 11 13 14 14 12 17 19 21 22 24 25 29 31 32 34 34 35 34 35 35 34 32 33 32 29 29 28 27 26 24 22 20 19 17 16 15
Wind_Direction
263 275 270 266 266 256 241 250 262 281 284 290 327 340 334 320 315 323 340 342 342 340 338 338 340 336 332 329 328 331 327 321 312 312 297 280 263 250 241 240 236 234 229 219
281 271 278 274 268 262 256 257 262 272 281 35 322 313 315 320 320 305 330 338 333 331 331 331 330 330 330 325 323 331 324 321 323 326 292 272 248 237 240 235 227 223 218 213
277 330 309 272 274 237 201 196 260 254 356 330 326 327 317 313 308 291 321 331 327 327 327 324 324 323 323 321 319 325 324 326 333 325 300 279 239 229 226 211 210 208 204 201
281 301 245 92 59 26 171 135 104 331 334 337 334 322 308 308 296 310 325 324 321 321 322 320 319 318 320 321 316 319 321 329 335 323 303 260 218 180 178 176 177 179 178 178
257 264 311 142 73 14 329 170 38 336 334 334 332 313 293 316 325 320 313 309 312 313 314 312 315 318 320 318 314 314 319 327 329 322 285 237 167 157 160 150 144 143 146 141
206 250 263 98 22 340 236 247 43 352 325 329 331 309 306 331 318 313 309 309 309 310 308 307 314 317 317 314 314 309 321 325 324 310 264 207 160 147 142 136 126 128 123 127
230 257 279 23 321 216 227 44 340 329 317 313 304 293 303 309 305 307 308 311 312 307 305 306 311 313 312 312 312 307 318 322 316 301 247 194 166 149 135 124 118 114 113 120
203 227 255 8 196 309 10 342 331 323 318 310 304 303 303 305 307 310 310 311 311 307 303 305 309 311 312 312 316 309 314 316 313 286 205 177 157 146 139 138 127 121 121 121
232 344 100 12 300 94 6 328 321 318 316 313 306 304 307 306 308 307 306 307 308 305 303 302 306 308 307 311 318 301 307 310 306 265 202 181 160 148 140 140 134 129 126 123
286 120 328 302 145 16 348 328 318 313 309 304 301 304 302 303 304 305 305 304 305 303 299 300 305 305 303 308 316 290 293 297 287 230 189 175 165 160 154 149 144 142 138 133
265 277 354 115 117 347 332 331 320 313 308 302 303 302 303 305 304 304 303 303 302 299 296 297 301 301 303 307 314 278 281 280 261 218 184 165 166 168 166 168 163 154 150 147
302 17 289 292 315 328 327 324 320 315 312 310 311 308 307 304 304 302 301 301 297 295 295 296 297 298 301 305 310 277 265 258 234 211 190 171 166 154 177 173 168 164 157 152
308 308 281 283 312 334 325 319 316 313 313 313 314 312 308 304 302 301 300 298 294 294 294 294 295 295 298 300 304 273 250 245 220 203 188 169 158 146 135 145 160 164 151 151
268 324 286 11 321 319 316 316 316 313 315 317 315 314 310 306 305 304 301 299 296 293 291 290 291 290 294 297 302 267 247 236 210 197 188 175 161 149 144 142 136 136 148 146
13 342 297 304 310 318 321 322 323 324 327 324 324 319 317 313 308 306 305 303 297 292 288 287 286 287 292 296 302 258 238 220 203 192 185 175 161 149 146 143 135 134 137 143
326 322 311 310 311 318 324 329 331 327 326 325 324 323 321 317 315 314 316 318 300 290 293 291 288 290 293 295 295 246 236 220 196 185 176 168 157 150 145 141 135 136 140 144
345 329 328 318 323 322 325 331 334 329 326 325 325 325 325 325 327 329 330 330 313 298 297 294 293 296 293 290 278 229 227 201 191 182 174 165 158 152 147 141 138 138 144 152
296 296 303 309 316 322 327 333 333 331 327 324 326 328 330 333 333 331 335 336 339 332 332 327 313 305 295 290 256 217 221 194 185 177 173 163 156 152 145 140 141 145 149 155
321 318 320 316 317 316 318 324 328 326 324 329 331 330 328 333 339 336 337 346 356 349 337 333 328 322 301 291 213 210 215 192 184 177 172 165 156 152 146 147 149 148 151 155
328 329 325 322 326 327 326 330 329 328 331 335 335 339 340 342 343 342 344 346 350 341 342 342 342 339 336 267 194 211 212 189 181 173 168 160 156 151 153 159 159 155 157 168
330 336 339 338 330 333 338 334 331 330 336 342 345 343 340 341 348 351 353 352 347 349 352 5 1 358 10 133 192 215 207 187 180 173 163 157 152 152 152 155 155 156 164 176
334 339 341 343 339 339 350 345 338 340 345 348 352 353 353 354 356 357 359 354 346 354 358 3 12 22 41 135 30 210 193 187 179 169 161 158 154 149 150 157 161 168 175 184
337 339 338 352 350 345 354 0 351 350 348 352 357 355 353 349 357 357 350 353 358 1 10 12 14 27 43 44 50 102 167 173 169 167 160 159 156 154 160 161 165 171 180 177
337 347 346 356 4 5 355 353 355 354 353 1 4 9 3 356 359 5 4 3 9 15 21 21 27 44 64 66 67 76 109 137 150 155 153 151 152 161 161 159 158 164 170 172
342 343 352 6 6 354 346 345 350 1 359 6 7 14 17 19 9 0 17 17 20 30 33 27 33 51 60 65 68 75 76 87 112 129 138 147 154 155 155 155 159 162 163 167
349 341 352 2 0 348 346 350 356 2 3 4 10 12 22 28 24 32 34 29 37 41 44 42 37 50 57 62 71 71 72 89 99 104 116 122 130 135 140 146 150 157 159 162
355 1 357 0 3 354 355 355 1 3 4 7 3 11 22 30 33 36 37 42 45 48 50 52 54 52 60 66 69 72 76 78 83 95 101 107 114 119 125 129 132 138 143 149